Погода в Балахте

Погода в Балахте : погода сейчас, прогноз погоды и архив. Всё, что Вы хотите узнать о погоде в Балахте!

Поиск расширенной информации на нашем сайте:

Другие новости

Новости СМИ2

Главная страница сайта

Новости сайта

03.07.2017

Напоминаем, что на нашем специализированном сайте Метеоцентр.Азия вы можете получить высокодетализированные автоматические прогнозы погоды по пунктам России, СНГ и мира в авиационном формате (включающие направление и скорость ветра, видимость, явления погоды, количество и форму облачности, нижнюю и верхнюю границу облачности).


Погода в Балахте - сегодня

Время (UTC), дата Ветер
(°,м/с) 
Видим.   Явления Облачность Т
(°С)
Тd
(°С)
f(%) Тe
(°С)
Pmin
(гПа)
dP
(гПа)
Po
(мм)
O2
(г/м3)
Тmin Tmax R s Состояние
почвы
21 16.09.17 250 (З) 20000 м    9/9 600 м кучево-дожд. 
[Cb cap]
+11.4 +10 91 +13  1008.5  -0.1  728  280           
00 17.09.17 300 (СЗ) 8-12{12}  20000 м  в посл. час ливневой дождь  10/10 600 м кучево-дожд. 
[Cb cap]
+9.8 +7.7 87 +8  1010.3  1.4  729  282  +9.4      влажная 
03 17.09.17 340 (С) 5{12}  20000 м    10/10 600 м кучево-дожд. 
[Cb cap]
+6.4 +2.5 76 +5  1016.4  5.3  733  288           
06 17.09.17 270 (З) 20000 м    9/6 1000 м верхняя 
[Sc|Ci sp]
+7.6 +2.3 69 +6  1018.7  2.4  735  288           
09 17.09.17 280 (З) 20000 м    3/3 1000 м 
[Sc]
+10.6 +3.3 61 +11  1018.3  0.2  735  285           
15 17.09.17 070 (В) 20000 м    10/10 1000 м 
[Sc]
+7.2 +5.2 87 +8  1017.4  -1.4  734  287           
18 17.09.17 090 (В) 20000 м    9/9 1000 м 
[Sc]
+9 +6.2 83 +9  1014.9  -2.1  732  285           
21 17.09.17 090 (В) 20000 м    6/6 1000 м 
[Sc]
+8.4 +6.2 86 +9  1012.5  -2.4  731  284           
00 18.09.17 160 (Ю) 20000 м    9/9 1000 м 
[Sc]
+10.5 +7.8 83 +12  1010.7  -1.4  729  282  +7        влажная 
03 18.09.17 150 (ЮВ) 20000 м  в посл. час ливневой дождь  10/10 600 м кучево-дожд. 
[Cb cap]
+12.8 +9.3 79 +15  1009.3  -1.1  729  279           
06 18.09.17 тихо ()   20000 м  ливневой дождь  10/10 600 м кучево-дожд. 
[Cb cap]
+13 +11.9 93 +17  1008.7  -0.5  728  278           
09 18.09.17 250 (З) 20000 м  в посл. час ливневой дождь  10/10 600 м кучево-дожд. 
[Cb cap]
+14.7 +11.5 81 +19  1008  -0.5  728  276           
12 18.09.17 240 (ЮЗ) 20000 м  в посл. час ливневой дождь  10/10 600 м кучево-дожд. 
[Cb cap]
+14.2 +12.2 88 +20  1008.3  0.3  728  276    +15.4     
15 18.09.17 тихо ()   20000 м    ясно 
+11 +10 94 +13  1009.7  0.8  729  280           
18 18.09.17 100 (В) 10 км  туман на расстоянии  ясно 
+9.4 +8.8 96 +9  1009.2  -0.6  728  282           
21 18.09.17 060 (СВ) 10 км  туман на расстоянии  10/10 1000 м 
[Sc]
+9.6 +9.2 97 +11  1007  -2.1  727  281           
00 19.09.17 тихо ()   4000 м  ливневой дождь  10/10 600 м кучево-дожд. 
[Cb cap]
+9.8 +9.6 99 +11  1005.7  -1.3  726  280  +8.5    10    влажная 
03 19.09.17 240 (ЮЗ) 20000 м  слаб. ливневой дождь  10/10 600 м кучево-дожд. 
[Cb cap]
+10.6 +10 96 +14  1006.6  726  280           
06 19.09.17 260 (З) 20000 м  {ливн. осадки}  9/9 600 м кучево-дожд. 
[Cb cap]
+13.2 +9.9 80 +15  1007  0.8  727  278           
09 19.09.17 260 (З) 20000 м    9/9 600 м кучево-дожд. 
[Cb cap]
+14 +6.8 62 +14  1008  728  278           
12 19.09.17 тихо ()   20000 м  гроза без осадков  9/9 600 м кучево-дожд. 
[Cb cap]
+13 +7.3 68 +13  1008.5  0.3  728  279    +14.4     
15 19.09.17 тихо ()   20000 м  {гроза, ливн. осадки}  3/3 1000 м 
[Sc]
+8.2 +6.7 90 +8  1010.4  1.2  729  284           
18 19.09.17 240 (ЮЗ) 20000 м  {гроза, ливн. осадки}  9/9 600 м кучево-дожд. 
[Cb cap]
+7.6 +7 96 +9  1011.1  0.7  729  285           
21 19.09.17 250 (З) 10 км  слаб. ливневой дождь  10/10 600 м кучево-дожд. 
[Cb cap]
+8 +7.1 94 +9  1011.2  0.1  730  284           
00 20.09.17 230 (ЮЗ) 20000 м  в посл. час дождь{ливн. осадки}  10/10 600 м 
[Frnb]
+8 +7.4 96 +8  1012.2  0.9  730  285  +7.2      влажная 
Время (UTC), дата Ветер
(°,м/с) 
Видим.   Явления Облачность Т
(°С)
Тd
(°С)
f(%) Тe
(°С)
Pmin
(гПа)
dP
(гПа)
Po
(мм)
O2
(г/м3)
Тmin Tmax R s Состояние
почвы

Для получения пояснительной информации подведите курсор к названию столбца.

ПОГОДА в Балахте - архив

Всё, что Вы хотите узнать о погоде в Балахте - удобно и подробно!

Выберите нужную дату (начиная с 1 января 2015* года) и нажмите кнопку "Найти".
Будут отображены архивные сводки погоды по пункту Балахта, начиная с указанной даты.


Отображать данные в формате CSV (для использования в таблицах Excel)


Внимание! Наш архив погоды предназначен исключительно для личного некоммерческого использования в познавательных целях. Если Вам необходимы официальные справки о состоянии погоды (для производственных, юридических, коммерческих и т.п. целей), обращайтесь в органы Росгидромета.

*Примечание: данная дата относится к архиву по метеостанциям СССР (Россия, СНГ, Балтия).
Архив по метеостанциям Зарубежной Европы и Азии (кроме Китая) хранится 10 дней, по другим регионам земного шара (Китай, Африка, Америка, Австралия, Океания) - 1 день.

Балахта - район местоположения метеостанции


Название, широта, долгота, высота метеостанции:
Балахта 55.4°ш. 91.7°д. 321 м над ур. моря [Российская Федерация]

Дополнительная информация

В oтличие oт бoльшинства пoгoдных сайтoв мы публикуем пoдрoбную метеoинфoрмацию в детальнoм прoфессиoнальнoм фoрмате.

Характеристики температуры и влажнoсти вoздуха измеряются на высoте 2 м в тени вдали oт зданий и деревьев.
Скoрoсть ветра измеряется на высoте 10 м (на урoвне рoста челoвека скoрoсть ветра ниже в 1.5-2 раза). Если метеoстанция нахoдится в гoрoде или в лесу, тo скoрoсть ветра занижена на 2-4 м/с пo сравнению с oткрытым местoм. Скoрoсть ветра над акватoриями крупных рек и oзёр, а также на вершинах хoлмoв на 2-5 м/с выше, чем в oбычных услoвиях.
Атмoсфернoе давление в разных тoчках местнoсти мoжет значительнo oтличаться oт давления на метеoстанции, в зависимoсти oт услoвий рельефа (при пoдъёме на 10 м давление пoнижается примернo на 1 мм рт.ст.).